XSAT

Satellite information

Favourite Embed

Satellite Type and Status

PAYLOADIN ORBIT

Key statistics

Satellite XSAT at a glance.

Uptime

5246

Days in orbit

Revolutions

≈ 14.3

Per day

Orbit

SSO

Sun Synchronous Orbit

Inclination

98.3

Latest

Satellite identification and parameters

Extended collection of information and parameters for XSAT.

Object identification

Identified? True

Debris? False

Object name: XSAT

International designator: 2011-015C

Object number (NORAD): 37389

Object ID (CCSDS): 37389

Country: SINGAPORE (SING)

Current information (Y/N): Y

RCS size: MEDIUM

Orbital parameters

Period: 101.048 minutes

Inclination: 98.3188 deg

SMA: 7186.412 km

Apoapsis: 819.17 km

Periapsis: 797.385 km

RAAN: 227.4781 deg

Eccentricy: 0.00151569

Argument of periapsis: 118.6585 deg

Mean anomaly: 241.6122 deg

Mean motion: 14.25064607 rev/day

Mean motion (dot): 0.00000201 rev/day2

B* drag term: 0.0001031265 1/REarth

Two-line elements (TLE)

Creation date: Aug. 29, 2025, 2:15 a.m.

Reference frame: TEME

Reference center: EARTH

Epoch: Aug. 28, 2025, 10:44 p.m. UTC

TLE line 0: 0 XSAT

TLE line 1: 1 37389U 11015C 25240.94764161 .00000201 00000-0 10313-3 0 9993

TLE line 2: 2 37389 98.3188 227.4781 0015157 118.6585 241.6122 14.25064607746058

Live tracking on map

Real-time ground track for satellite XSAT.

In-orbit conjunctions

There are no conjunctions computed for XSAT, at the moment. Check back to stay up to date, as we update our databases every day.

Go to all conjunctions

Associated space launch

XSAT was lifted into orbit during the mission ‘PSLV | Resourcesat-2’, on board a PSLV space rocket.

The launch took place on April 20, 2011, 4:42 a.m. from Satish Dhawan Space Centre First Launch Pad.

For more information about the launch, click the button.

Launch to space PSLV | Resourcesat-2
PSLV | Resourcesat-2

Agency: N/A

Status: Launch Successful

Launch date: April 20, 2011, 4:42 a.m. UTC

Rocket: PSLV

Launch pad: Satish Dhawan Space Centre First Launch Pad

Location: Satish Dhawan Space Centre, India

...

Latest news about this satellite

There are no fresh news available about this satellite. Check back as we update our databases every day.


Newsletter sign-up

Weekly statistics, charts and insights to help you stay on top of the space industry.